| time (UTC) | temp F | wind direction | speed knots | gust knots | rain 1hr in | rain 24hr in | rain mn in | humidity % | barometer mb |
| 20260505031547 | 63 | 242 | 2.6 | 6.1 | 0.00 | 0.16 | 0.16 | 74 | 1001.0 |
| 20260505030057 | 63 | 241 | 3.5 | 8.7 | 0.00 | 0.16 | 0.16 | 75 | 1001.1 |
| 20260505024547 | 63 | 200 | 6.1 | 10.4 | 0.01 | 0.16 | 0.16 | 75 | 1000.7 |
| 20260505023046 | 63 | 229 | 7.0 | 12.2 | 0.01 | 0.16 | 0.16 | 75 | 1000.3 |
| 20260505021553 | 64 | 204 | 5.2 | 10.4 | 0.01 | 0.16 | 0.16 | 76 | 1000.0 |
| 20260505020053 | 64 | 225 | 7.8 | 14.8 | 0.01 | 0.16 | 0.16 | 74 | 1000.2 |
| 20260505014544 | 65 | 234 | 6.1 | 14.8 | 0.00 | 0.15 | 0.15 | 72 | 1000.1 |
| 20260505013046 | 65 | 186 | 6.1 | 14.8 | 0.00 | 0.15 | 0.15 | 74 | 999.7 |
| 20260505011544 | 64 | 196 | 4.3 | 10.4 | 0.00 | 0.15 | 0.15 | 77 | 999.6 |
| 20260505010104 | 64 | 201 | 2.6 | 6.1 | 0.00 | 0.15 | 0.15 | 78 | 998.8 |
| 20260505004545 | 63 | 215 | 3.5 | 10.4 | 0.06 | 0.15 | 0.15 | 79 | 999.0 |
| 20260505003048 | 63 | 194 | 6.1 | 11.3 | 0.14 | 0.15 | 0.15 | 80 | 999.2 |
| 20260505001542 | 62 | 213 | 3.5 | 8.7 | 0.15 | 0.15 | 0.15 | 84 | 998.6 |
| 20260505000051 | 62 | 196 | 2.6 | 9.6 | 0.15 | 0.15 | 0.15 | 84 | 998.1 |
| 20260504234539 | 65 | 246 | 6.1 | 15.6 | 0.09 | 0.09 | 0.09 | 77 | 999.8 |
| 20260504233045 | 71 | 315 | 3.5 | 17.4 | 0.01 | 0.01 | 0.01 | 61 | 999.2 |
| 20260504231537 | 74 | 185 | 5.2 | 11.3 | 0.00 | 0.00 | 0.00 | 54 | 998.1 |
| 20260504230046 | 74 | 240 | 7.0 | 16.5 | 0.00 | 0.00 | 0.00 | 52 | 998.1 |
| 20260504224545 | 74 | 217 | 11.3 | 24.3 | 0.00 | 0.00 | 0.00 | 50 | 998.2 |
| 20260504223035 | 79 | 205 | 7.8 | 17.4 | 0.00 | 0.00 | 0.00 | 42 | 998.1 |
| 20260504221535 | 80 | 228 | 7.0 | 15.6 | 0.00 | 0.00 | 0.00 | 39 | 998.1 |
| 20260504220034 | 80 | 241 | 6.1 | 16.5 | 0.00 | 0.00 | 0.00 | 39 | 998.5 |
| 20260504214541 | 80 | 192 | 7.8 | 19.1 | 0.00 | 0.00 | 0.00 | 39 | 998.5 |
| 20260504213034 | 79 | 219 | 7.8 | 19.1 | 0.00 | 0.00 | 0.00 | 39 | 998.7 |
| 20260504211531 | 79 | 248 | 6.1 | 16.5 | 0.00 | 0.00 | 0.00 | 38 | 998.7 |
| 20260504210030 | 79 | 209 | 6.1 | 14.8 | 0.00 | 0.00 | 0.00 | 40 | 999.1 |
| 20260504204529 | 80 | 217 | 7.8 | 18.2 | 0.00 | 0.00 | 0.00 | 38 | 999.0 |
| 20260504203031 | 79 | 211 | 8.7 | 15.6 | 0.00 | 0.00 | 0.00 | 38 | 999.3 |
| 20260504201527 | 79 | 234 | 7.0 | 19.1 | 0.00 | 0.00 | 0.00 | 36 | 999.6 |
| 20260504200030 | 79 | 253 | 9.6 | 15.6 | 0.00 | 0.00 | 0.00 | 34 | 999.8 |
| 20260504194526 | 80 | 213 | 6.1 | 18.2 | 0.00 | 0.00 | 0.00 | 35 | 999.8 |
| 20260504193025 | 79 | 237 | 11.3 | 19.1 | 0.00 | 0.00 | 0.00 | 36 | 1000.1 |
| 20260504191523 | 78 | 209 | 10.4 | 22.6 | 0.00 | 0.00 | 0.00 | 34 | 1000.4 |
| 20260504190023 | 79 | 276 | 6.1 | 18.2 | 0.00 | 0.00 | 0.00 | 34 | 1000.3 |
| 20260504184528 | 77 | 256 | 7.0 | 15.6 | 0.00 | 0.00 | 0.00 | 37 | 1000.4 |
| 20260504183025 | 77 | 211 | 6.1 | 19.1 | 0.00 | 0.00 | 0.00 | 39 | 1000.7 |
| 20260504181517 | 76 | 267 | 7.8 | 13.9 | 0.00 | 0.00 | 0.00 | 37 | 1000.8 |
| 20260504180017 | 76 | 200 | 6.1 | 13.9 | 0.00 | 0.00 | 0.00 | 40 | 1001.0 |
| 20260504174511 | 76 | 194 | 7.8 | 15.6 | 0.00 | 0.00 | 0.00 | 40 | 1001.2 |
| 20260504173009 | 75 | 218 | 4.3 | 17.4 | 0.00 | 0.00 | 0.00 | 45 | 1001.3 |
| 20260504171507 | 74 | 222 | 5.2 | 18.2 | 0.00 | 0.00 | 0.00 | 46 | 1001.6 |
| 20260504170106 | 73 | 223 | 6.1 | 13.9 | 0.00 | 0.00 | 0.00 | 45 | 1001.7 |
| 20260504160105 | 72 | 200 | 5.2 | 17.4 | 0.00 | 0.00 | 0.00 | 43 | 1002.7 |
| 20260504081600 | 55 | 186 | 2.6 | 4.3 | 0.00 | 0.00 | 0.00 | 73 | 1004.9 |
| 20260504044531 | 59 | 207 | 4.3 | 9.6 | 0.00 | 0.00 | 0.00 | 65 | 1006.6 |
| 20260504043044 | 60 | 189 | 3.5 | 9.6 | 0.00 | 0.00 | 0.00 | 64 | 1006.6 |
| 20260504041535 | 60 | 190 | 3.5 | 8.7 | 0.00 | 0.00 | 0.00 | 63 | 1006.6 |
| 20260504040031 | 60 | 192 | 4.3 | 8.7 | 0.00 | 0.00 | 0.00 | 62 | 1006.7 |
| 20260504034530 | 61 | 202 | 3.5 | 8.7 | 0.00 | 0.00 | 0.00 | 62 | 1007.0 |
| 20260504033030 | 61 | 186 | 3.5 | 9.6 | 0.00 | 0.00 | 0.00 | 61 | 1007.2 |